{"data":{"norad_id":57611,"epoch":"2026-05-24T21:27:04.562784Z","epoch_age_seconds":94544,"freshness":"FRESH","line1":"1 57611U 23119K   26144.89380281 -.00002803  00000+0 -92353-4 0  9992","line2":"2 57611  43.0049  10.9724 0001399 244.5354 115.5353 15.27581952154721","mean_motion":15.27581952,"eccentricity":0.0001399,"inclination_deg":43.0049,"raan_deg":10.9724,"arg_perigee_deg":244.5354,"mean_anomaly_deg":115.5353,"bstar":-9.2353e-5,"rev_number":15472,"period_min":94.266628256158,"perigee_km":482.08337193853,"apogee_km":484.00313017277,"semimajor_km":6861.1802510556,"source":"CELESTRAK","updated_at":"2026-05-25T13:38:18.356897Z"}}